Simultaneous Nadir Overpasses (SNOs) Predictions

Prediction of SNOs between NOAA-19 and NPP Satellite Orbit:

Table of predicted SNOs for the next 14.0 days since TLE Epoch: 7/8/2016
Index Date (NOAA-19) Time (NOAA-19) Lat,Lon (NOAA-19) SZA (NOAA-19 ) Date (NPP) Time (NPP) Lat,Lon (NPP) SZA (NPP ) Distance(km) Time Diff (sec)
1 07/16/2016 23:18:49 -80.99, -42.70 116.21 07/16/2016 23:19:55 -80.99, -42.71 116.25 0.37 66
2 07/17/2016 00:09:54 80.98, 124.38 63.82 07/17/2016 00:10:40 80.99, 124.49 63.78 2.09 46
3 07/17/2016 01:00:51 -80.99, -68.19 116.20 07/17/2016 01:01:25 -80.99, -68.13 116.23 1.13 34
4 07/17/2016 01:51:55 80.99, 99.26 63.78 07/17/2016 01:52:09 80.98, 99.44 63.74 3.26 14
5 07/17/2016 02:42:53 -80.99, -93.69 116.19 07/17/2016 02:42:55 -80.99, -93.55 116.21 2.47 2
6 07/17/2016 03:33:57 80.99, 73.76 63.79 07/17/2016 03:33:40 81.00, 73.65 63.82 2.10 17
7 07/17/2016 04:24:54 -80.99,-118.81 116.23 07/17/2016 04:24:25 -80.99,-118.97 116.19 2.85 29
8 07/17/2016 05:15:58 80.99, 48.63 63.75 07/17/2016 05:15:09 80.98, 48.59 63.78 1.19 49




NCC Satellite Simultaneous Nadir Overpasses (SNOs) Prediction Service
